Wind_Speed
12 11 11 12 13 15 16 17 19 20 20 20 19 18 18 18 18 18 18 19 19 20 20 20 19 18 18 18 18 19 20 20 21 22 23 23 23 23 24 25 26 27
11 10 11 11 12 14 15 17 18 19 20 19 19 18 16 15 16 17 17 18 19 20 20 21 21 20 19 19 19 19 20 21 22 23 25 27 26 27 29 29 29 30
12 11 11 11 12 13 15 16 17 18 18 18 18 17 16 15 15 15 16 17 18 19 20 20 20 20 20 20 20 21 22 22 23 24 25 27 28 30 32 32 33 34
12 12 12 12 13 14 15 15 16 16 16 16 16 16 16 16 16 16 16 16 17 18 19 19 20 20 20 20 21 22 23 24 26 27 27 27 28 30 33 33 33 35
12 13 12 12 14 15 16 16 16 14 14 14 15 16 17 17 17 17 17 16 16 17 18 19 20 21 21 21 21 21 22 23 25 27 28 28 29 30 32 33 33 34
12 13 12 12 14 15 16 17 16 14 12 13 14 15 17 18 17 16 16 16 17 18 19 20 21 21 21 21 21 21 21 22 23 24 26 27 28 30 31 33 34 34
12 12 11 11 13 14 15 16 15 13 12 13 14 15 16 16 16 15 15 16 18 19 21 21 21 20 20 21 21 22 22 22 22 24 25 25 27 29 30 31 33 34
12 12 10 11 12 13 14 15 15 14 13 14 14 15 15 15 15 15 15 16 18 20 21 21 20 20 20 20 21 22 21 21 22 24 26 27 28 30 30 31 34 35
12 11 10 11 12 12 13 14 15 15 15 15 15 16 16 15 14 15 16 17 18 20 21 20 19 19 19 20 21 22 22 22 23 25 25 26 27 29 31 32 33 35
12 11 10 10 11 12 13 14 15 16 16 16 17 17 16 16 15 15 16 17 18 20 21 19 18 19 19 19 20 21 22 24 27 28 26 26 26 27 30 31 31 34
11 10 10 10 11 12 13 14 15 16 17 18 17 17 16 16 15 15 16 17 18 19 19 17 17 17 18 20 21 21 22 25 28 29 28 27 29 28 29 31 31 33
10 10 10 10 10 12 13 14 16 17 18 19 18 17 16 16 15 15 15 16 17 18 17 16 18 19 19 21 22 22 22 26 29 30 29 30 33 33 31 29 29 31
9 10 11 11 11 12 13 15 16 17 18 19 19 17 16 16 16 16 16 16 17 18 18 18 19 21 21 23 23 22 22 25 29 31 31 32 35 36 33 28 27 28
10 11 12 12 13 14 15 15 16 17 18 19 19 18 17 16 16 17 17 17 18 20 20 20 20 21 23 24 24 23 22 24 28 30 32 35 37 35 31 27 26 26
11 12 12 13 14 15 15 16 16 17 18 19 20 19 18 17 17 17 18 19 19 20 21 22 21 20 23 26 25 23 22 24 28 30 33 36 38 35 30 27 27 27
11 11 12 13 15 16 16 16 17 17 18 19 20 20 19 19 18 18 18 19 20 21 21 21 21 21 23 25 25 22 21 23 27 30 32 36 37 34 31 29 29 28
10 11 12 14 15 16 16 17 17 18 19 19 20 20 21 20 19 18 18 18 19 19 18 19 21 21 23 24 24 22 21 23 26 29 32 35 36 34 32 31 30 28
11 11 13 14 15 16 16 17 19 19 18 18 19 20 21 20 19 18 17 17 17 17 18 18 20 21 22 22 22 21 21 22 25 27 30 34 35 34 32 29 25 21
11 12 13 14 15 16 17 18 20 19 17 17 18 20 21 20 18 17 17 17 17 18 19 19 19 19 19 20 20 20 20 21 24 26 28 32 35 34 33 30 26 21
13 13 14 15 15 16 17 19 20 18 17 18 19 19 19 19 18 17 17 18 18 19 20 21 19 17 16 17 18 19 19 20 22 25 26 30 34 34 34 33 31 28
14 14 14 14 14 15 17 19 18 17 17 18 18 17 17 18 18 17 18 18 19 19 20 21 19 15 14 16 17 18 18 18 20 23 25 28 31 32 33 33 32 29
13 14 14 14 14 15 16 17 17 17 16 16 16 16 16 17 18 18 18 19 19 19 20 22 20 15 14 14 15 17 18 19 20 22 23 25 27 28 30 31 32 32
13 14 14 13 14 14 15 16 17 17 16 16 16 16 17 18 19 19 19 19 20 19 20 22 20 15 14 14 15 17 19 20 21 22 22 22 24 26 28 30 33 33
13 14 13 13 13 13 14 15 16 17 17 16 17 18 19 19 19 19 18 18 19 19 19 21 21 16 14 15 16 18 20 21 22 23 22 22 22 24 26 28 31 32
14 13 13 12 12 13 13 15 16 17 17 17 17 18 18 18 18 18 18 17 18 18 18 20 22 17 13 14 17 18 20 21 21 22 23 23 22 23 24 26 28 30
15 14 13 12 13 13 13 14 14 16 17 16 16 16 17 17 18 19 19 18 17 18 18 19 21 18 13 13 15 18 20 20 20 20 22 22 22 22 22 24 27 28
Wind_Direction
322 318 317 319 320 319 319 320 320 321 325 327 329 329 325 320 316 314 313 312 311 309 308 306 304 301 297 295 292 287 284 282 278 273 273 272 268 266 266 263 261 261
324 317 316 316 318 320 320 320 320 320 323 326 329 331 330 327 321 316 315 314 313 312 310 309 307 304 301 298 294 289 285 283 279 275 274 275 274 272 270 268 265 265
322 315 314 316 320 324 323 320 319 319 322 324 326 328 329 330 327 322 319 317 316 316 314 312 310 307 306 302 298 295 291 287 283 278 275 275 273 271 269 268 268 267
318 314 315 319 324 325 325 323 320 318 319 320 321 322 322 324 324 323 322 320 319 318 315 313 311 309 308 306 303 300 296 292 289 286 282 278 274 272 271 269 267 266
314 314 315 321 324 326 328 329 324 318 314 315 316 318 318 319 319 320 322 322 320 317 314 311 308 308 308 308 307 305 303 299 295 291 287 283 279 276 274 272 268 266
312 314 316 320 324 328 333 335 332 326 318 315 316 316 318 318 317 318 319 320 318 315 313 311 309 310 310 310 309 308 306 303 299 294 290 286 281 277 274 271 268 265
310 313 314 318 324 331 337 339 339 335 326 322 321 319 319 317 315 315 314 315 316 315 314 313 312 312 312 313 313 312 310 306 302 299 296 291 285 279 274 270 268 265
306 309 310 316 324 333 339 341 342 340 334 331 328 324 322 317 311 310 311 314 317 318 316 314 312 313 316 320 320 319 317 311 307 304 300 296 290 284 278 273 271 268
300 302 305 314 323 330 337 339 338 337 334 332 330 328 325 318 309 305 307 311 318 320 317 314 314 316 320 325 326 324 321 318 317 313 307 301 295 288 283 278 273 270
294 295 300 311 320 326 331 331 329 327 328 326 325 325 326 323 315 306 303 307 314 319 317 316 317 319 323 327 327 325 322 321 323 320 315 310 303 295 288 283 277 272
286 288 297 307 315 320 323 323 322 322 322 321 320 320 322 323 321 315 310 306 309 317 321 324 325 324 327 329 327 325 321 321 323 322 320 318 314 307 297 288 282 277
282 285 293 301 308 312 316 318 319 319 320 319 317 317 317 319 321 321 318 312 311 315 319 325 330 330 329 328 326 323 320 320 323 325 324 324 322 317 308 294 282 277
280 282 289 296 302 307 310 312 314 315 318 319 317 316 315 316 318 319 320 318 317 316 315 316 324 331 330 327 326 322 318 319 323 325 326 326 324 320 315 302 285 273
280 281 286 294 300 304 307 308 308 313 317 319 320 318 315 313 314 316 317 318 317 316 313 310 316 328 330 328 326 323 320 321 325 326 326 326 326 322 316 308 295 280
281 283 287 294 300 305 307 305 306 312 317 320 322 321 318 313 311 312 315 316 316 316 313 310 312 322 327 327 328 326 323 325 330 330 328 330 331 326 316 306 299 290
279 284 289 297 304 308 308 306 307 312 316 319 321 322 320 315 309 308 312 315 317 318 316 314 313 316 322 326 328 328 325 328 333 333 334 337 337 331 322 313 306 297
280 284 291 300 306 309 308 307 309 312 315 317 318 319 319 317 311 308 311 314 316 319 321 320 317 316 320 324 328 328 326 330 334 334 338 344 344 339 333 325 316 306
283 287 293 300 305 307 306 309 312 314 314 314 315 317 317 317 313 310 312 315 317 320 324 323 319 318 320 322 325 327 327 332 337 337 341 350 351 347 344 339 330 319
285 288 295 300 305 307 308 314 317 316 315 314 314 315 315 316 315 313 313 314 316 322 326 324 320 318 318 318 322 327 328 333 340 339 343 353 356 353 353 354 355 355
284 287 294 301 306 309 313 319 321 318 315 314 314 314 314 316 316 314 313 314 317 323 327 326 322 316 313 314 322 329 331 334 339 340 345 354 357 358 360 360 360 4
282 284 290 298 306 310 316 323 325 322 318 316 315 315 316 316 317 315 313 314 318 323 326 326 324 314 307 313 325 335 338 337 339 342 347 353 355 358 2 2 360 1
281 282 286 294 303 309 317 326 331 329 324 319 318 319 317 316 316 315 314 314 318 322 324 325 325 314 304 314 331 340 343 343 343 345 349 352 354 356 358 360 2 3
282 281 285 292 299 306 318 327 330 330 326 321 320 322 321 319 317 315 314 315 317 320 321 323 325 317 306 315 330 337 341 345 346 347 349 349 351 354 354 356 2 4
275 277 283 290 296 304 316 323 325 326 323 320 321 323 324 323 320 318 317 318 318 319 320 321 324 319 307 313 325 330 334 340 342 345 349 347 347 351 353 354 359 3
265 268 276 286 293 302 311 316 319 320 319 318 319 321 323 324 323 321 320 321 322 321 320 320 324 323 312 312 322 326 328 332 335 339 345 347 346 347 349 351 354 1
263 262 269 281 291 299 307 311 313 314 315 315 316 317 319 320 321 320 319 320 324 325 323 321 324 326 319 311 317 323 325 327 330 333 337 343 346 345 346 348 352 360
Height
1547 1546 1545 1544 1543 1542 1540 1539 1538 1537 1536 1534 1533 1532 1530 1529 1528 1527 1526 1525 1524 1523 1522 1522 1521 1521 1520 1520 1519 1519 1518 1519 1519 1519 1519 1518 1519 1518 1519 1519 1520 1520
1546 1545 1544 1543 1542 1541 1539 1538 1537 1535 1534 1533 1531 1530 1529 1528 1526 1525 1524 1524 1523 1522 1521 1520 1519 1518 1518 1517 1517 1516 1516 1516 1515 1516 1515 1515 1516 1515 1515 1515 1516 1516
1544 1543 1543 1542 1541 1540 1539 1537 1536 1534 1533 1532 1530 1529 1528 1527 1525 1524 1523 1522 1522 1521 1520 1519 1518 1517 1516 1515 1514 1514 1513 1513 1512 1512 1512 1511 1511 1511 1511 1511 1511 1511
1542 1542 1541 1540 1539 1539 1538 1536 1535 1533 1532 1530 1529 1528 1526 1525 1524 1523 1522 1521 1520 1520 1519 1518 1517 1515 1514 1513 1512 1511 1511 1510 1509 1509 1508 1508 1508 1507 1506 1506 1506 1506
1541 1540 1539 1539 1538 1537 1536 1535 1533 1532 1531 1529 1528 1527 1525 1524 1523 1522 1521 1520 1519 1518 1517 1516 1515 1514 1513 1511 1510 1509 1508 1507 1506 1505 1504 1504 1504 1503 1502 1501 1501 1501
1539 1538 1538 1537 1536 1535 1534 1533 1532 1530 1529 1528 1527 1526 1525 1523 1522 1520 1519 1519 1518 1517 1516 1514 1513 1512 1511 1510 1508 1507 1506 1505 1504 1502 1501 1500 1499 1499 1498 1497 1496 1496
1538 1537 1536 1536 1535 1534 1533 1532 1531 1529 1528 1527 1526 1525 1524 1522 1521 1519 1518 1517 1516 1515 1514 1513 1512 1510 1509 1508 1506 1505 1504 1502 1501 1499 1497 1496 1495 1494 1494 1493 1491 1491
1536 1536 1535 1535 1534 1533 1532 1531 1530 1529 1527 1526 1525 1524 1522 1521 1519 1518 1517 1516 1515 1514 1512 1511 1510 1509 1507 1506 1504 1503 1501 1499 1498 1496 1494 1493 1491 1489 1489 1488 1486 1485
1535 1535 1534 1533 1532 1532 1531 1530 1529 1528 1527 1525 1524 1523 1521 1519 1518 1517 1515 1514 1513 1512 1511 1509 1508 1507 1506 1504 1503 1501 1499 1497 1495 1494 1491 1489 1487 1485 1484 1483 1482 1480
1534 1533 1533 1532 1531 1531 1530 1529 1528 1527 1526 1524 1523 1521 1520 1518 1516 1515 1514 1513 1512 1511 1509 1508 1507 1505 1504 1503 1501 1499 1497 1495 1493 1490 1488 1486 1484 1481 1479 1478 1477 1475
1532 1532 1532 1531 1530 1530 1529 1528 1527 1526 1525 1523 1521 1520 1519 1517 1515 1513 1512 1511 1510 1509 1508 1507 1505 1504 1503 1501 1499 1497 1494 1492 1490 1488 1485 1483 1480 1478 1475 1473 1471 1469
1531 1531 1530 1529 1529 1528 1527 1527 1525 1524 1523 1521 1520 1518 1517 1516 1514 1512 1511 1509 1508 1507 1506 1505 1504 1503 1501 1499 1497 1494 1492 1490 1487 1485 1482 1479 1476 1473 1469 1467 1465 1463
1529 1529 1529 1528 1527 1526 1526 1525 1524 1522 1521 1520 1518 1517 1515 1514 1512 1511 1509 1508 1507 1505 1504 1503 1502 1501 1499 1496 1494 1492 1490 1487 1485 1482 1479 1476 1472 1468 1464 1461 1459 1458
1528 1528 1527 1526 1526 1524 1524 1523 1521 1521 1519 1518 1516 1515 1514 1512 1511 1509 1508 1506 1505 1504 1502 1501 1500 1498 1497 1494 1492 1490 1488 1485 1482 1479 1475 1472 1468 1463 1459 1455 1453 1452
1526 1526 1525 1525 1524 1522 1522 1520 1520 1519 1517 1516 1515 1513 1512 1510 1509 1508 1506 1505 1503 1502 1500 1499 1498 1496 1495 1492 1490 1488 1486 1483 1480 1476 1473 1469 1464 1459 1454 1451 1448 1446
1525 1524 1524 1523 1522 1521 1520 1518 1518 1517 1516 1514 1513 1511 1510 1508 1507 1506 1504 1503 1502 1500 1498 1497 1495 1494 1493 1491 1488 1486 1484 1481 1478 1474 1471 1466 1461 1455 1450 1447 1443 1441
1523 1523 1522 1521 1520 1519 1518 1517 1516 1515 1514 1512 1511 1510 1508 1507 1505 1504 1503 1502 1500 1498 1497 1495 1493 1492 1490 1489 1486 1484 1482 1479 1476 1473 1469 1464 1458 1453 1447 1442 1438 1436
1522 1521 1520 1519 1518 1517 1516 1515 1514 1513 1511 1510 1509 1508 1506 1505 1504 1503 1501 1500 1498 1497 1495 1493 1492 1490 1488 1486 1484 1482 1480 1477 1474 1471 1467 1462 1457 1451 1446 1441 1436 1433
1520 1519 1519 1518 1517 1516 1515 1513 1512 1510 1509 1508 1507 1506 1504 1503 1502 1501 1500 1499 1497 1495 1493 1491 1490 1488 1486 1484 1482 1480 1478 1475 1473 1470 1466 1461 1456 1451 1446 1441 1436 1431
1518 1518 1517 1516 1515 1514 1513 1512 1510 1509 1507 1506 1505 1504 1503 1502 1501 1499 1498 1497 1495 1493 1491 1489 1487 1486 1484 1482 1480 1479 1476 1474 1471 1468 1464 1460 1456 1452 1446 1441 1436 1432
1517 1516 1515 1515 1514 1513 1511 1510 1509 1507 1506 1505 1503 1502 1501 1500 1499 1497 1496 1495 1493 1491 1489 1487 1485 1483 1482 1480 1478 1477 1474 1472 1469 1467 1463 1459 1456 1452 1448 1443 1439 1434
1515 1514 1514 1513 1512 1511 1510 1509 1507 1506 1504 1503 1502 1501 1500 1498 1497 1496 1494 1493 1491 1489 1487 1485 1483 1482 1480 1478 1477 1475 1473 1470 1468 1465 1462 1459 1456 1452 1449 1445 1440 1435
1513 1512 1512 1511 1510 1510 1508 1507 1506 1504 1503 1502 1500 1500 1498 1497 1495 1494 1492 1491 1489 1487 1485 1483 1481 1480 1478 1477 1475 1473 1471 1469 1466 1464 1461 1458 1455 1452 1449 1445 1440 1435
1511 1510 1510 1509 1509 1508 1507 1506 1505 1503 1502 1500 1499 1498 1497 1495 1494 1492 1491 1489 1487 1486 1483 1481 1480 1478 1477 1475 1473 1472 1470 1468 1465 1462 1460 1457 1455 1452 1449 1445 1441 1437
1508 1508 1508 1507 1507 1506 1505 1504 1503 1502 1501 1499 1498 1497 1495 1494 1492 1490 1489 1488 1486 1484 1482 1480 1478 1477 1475 1474 1472 1470 1468 1466 1464 1461 1458 1456 1453 1451 1448 1444 1441 1438
1506 1505 1505 1505 1505 1504 1503 1503 1501 1500 1499 1498 1497 1495 1494 1493 1491 1489 1488 1486 1484 1482 1480 1478 1476 1475 1474 1472 1470 1469 1467 1465 1463 1461 1458 1455 1452 1450 1447 1444 1441 1437